SCP
0 0 0 0 0 0 0 0 0 0 0 0 0 0 0 0 0 0 0 0 0 0 0 0 0 0 0 0 0 0 0 0 0 0 0 0 0 0 0 0 0 0 0 0 0 0 0 0 0
0 0 0 0 0 0 0 0 0 0 0 0 0 0 0 0 0 0 0 -0 0 0 0 0 -0 0 0 0 0 0 0 0 0 0 0 0 0 0 0 0 0 0 0 0 0 0 0 0 0
0 0 0 0 0 0 0 0 0 0 0 0 0 0 0 0 0 0 0 0 0 0 0 0 0 0 0 0 0 0 0 0 0 0 0 0 0 0 0 0 0 0 0 0 0 0 0 0 0
0 0 0 0 0 0 0 0 0 0 0 0 0 0 0 0 0 0 -0 0 0 0 0 0 0 0 0 0 0 0 0 0 0 0 0 0 0 0 0 0 0 0 0 0 0 0 0 0 0
0 0 0 0 0 0 0 0 0 0 0 0 0 0 0 0 -0 0 0 0 0 0 0 0 0 0 0 0 0 0 0 0 0 0 0 0 0 0 0 0 0 1 0 0 0 0 0 0 0
0 0 0 0 0 0 0 0 0 0 0 0 0 0 0 0 -0 0 0 0 0 0 0 0 0 0 0 0 0 0 0 0 0 0 0 1 1 1 0 1 1 0 0 0 0 0 0 0 0
0 0 0 0 0 0 0 0 0 0 0 0 0 0 0 0 0 0 0 0 0 0 0 0 0 0 0 0 0 0 0 0 0 0 0 0 0 0 1 1 0 0 0 0 0 0 0 0 0
0 0 0 -0 0 0 0 0 0 0 0 0 0 0 0 0 0 0 0 0 0 0 0 0 0 0 0 0 0 0 0 0 0 0 0 0 0 0 0 0 0 0 1 0 0 0 0 0 0
0 0 0 0 0 0 0 0 0 0 0 0 0 0 0 0 0 0 0 0 0 0 0 0 0 0 0 0 0 0 0 0 0 0 0 0 0 0 0 0 0 0 0 1 0 0 0 0 0
0 0 0 0 0 0 0 0 0 0 0 0 0 0 0 0 0 0 0 0 0 0 0 0 0 0 0 0 0 0 0 0 0 0 0 -0 -0 -0 0 0 0 0 0 0 1 1 0 0 0
0 0 0 0 0 0 0 0 0 0 0 0 0 0 0 0 0 0 0 0 0 0 0 0 0 0 0 0 0 0 0 0 0 0 0 -0 -0 -0 -0 0 0 0 0 0 0 1 1 0 0
0 0 0 0 0 0 0 0 0 0 0 0 0 0 0 0 0 0 0 0 0 0 0 0 0 0 0 0 0 0 0 0 0 0 0 0 -0 -0 -0 0 0 0 0 0 0 0 0 0 0
0 0 0 0 0 0 0 -0 0 0 0 -0 0 0 0 0 0 0 0 0 0 0 0 0 0 0 0 0 0 0 0 0 0 0 0 0 -0 -0 -0 -0 0 0 0 0 0 -0 0 0 0
0 0 0 0 0 0 0 -0 0 0 0 0 0 0 0 0 0 0 0 0 0 0 0 0 0 0 0 0 0 0 0 0 0 0 0 0 0 -0 -0 -0 0 0 0 -0 0 0 0 0 0
0 0 0 0 0 0 -0 0 0 0 0 0 0 0 0 0 0 0 0 0 0 0 0 0 0 0 0 0 0 0 0 0 0 0 0 0 0 -0 -0 -0 0 0 0 -0 0 0 0 0 0
0 0 0 0 0 0 0 0 0 0 0 0 0 0 0 0 0 0 0 0 0 0 0 0 0 0 0 0 0 0 0 0 0 0 0 0 -0 -0 0 -0 0 0 0 0 0 0 0 0 0
0 0 0 0 0 0 0 0 0 0 0 0 0 0 0 0 0 0 0 0 0 0 0 0 0 0 0 0 0 0 0 -0 -0 -0 0 0 0 -0 0 0 -0 0 0 0 0 0 0 0 0
0 0 0 0 0 0 0 0 0 0 0 0 0 0 0 0 0 0 0 0 0 0 0 0 0 0 0 0 0 0 0 0 0 -0 0 0 0 -0 -0 -0 -0 0 0 0 0 0 0 0 0
0 0 0 0 0 0 0 0 0 0 0 0 0 0 0 0 0 0 0 0 0 0 0 0 0 0 0 0 0 0 0 0 0 -0 0 0 0 0 0 -0 -0 -0 0 0 0 0 0 0 0
0 0 0 0 0 0 0 0 0 0 0 0 0 0 0 0 0 0 0 0 0 0 0 0 0 0 0 0 0 0 0 0 0 -0 -0 0 0 0 0 0 0 0 0 0 0 0 0 0 0
0 0 0 0 0 0 0 0 0 0 0 0 0 0 0 0 0 0 0 0 0 0 0 0 0 0 0 0 0 0 0 0 0 0 -0 0 0 0 0 -0 0 0 0 -0 -0 -0 -0 0 0
0 0 0 0 0 0 0 0 0 0 0 0 0 0 0 0 0 0 0 0 0 0 0 0 0 0 0 0 0 0 0 0 0 0 0 0 0 0 0 0 0 0 0 0 -0 -0 -0 0 0
0 0 0 0 0 0 0 0 0 0 0 0 0 0 0 0 0 0 0 0 0 0 0 0 0 0 0 0 0 0 0 0 0 0 0 0 0 0 0 0 0 0 0 0 0 0 0 0 0
0 0 0 0 0 0 0 0 0 0 0 0 0 0 0 0 0 0 0 0 0 0 0 0 0 0 0 0 0 0 0 0 0 0 0 0 0 0 0 0 0 0 0 0 0 0 0 0 0
0 0 0 0 0 0 0 0 0 0 0 0 0 0 0 0 0 0 0 0 0 0 0 0 0 0 0 0 0 0 0 0 0 0 0 0 0 0 0 0 0 0 0 0 0 0 0 0 0
0 0 0 0 0 0 0 0 0 0 0 0 0 0 0 0 0 0 0 0 0 0 0 0 0 0 0 0 0 0 0 0 0 0 0 0 0 0 0 0 0 0 0 0 0 0 0 0 0
0 0 0 0 0 0 0 0 0 0 0 0 0 0 0 0 0 0 0 0 0 0 0 0 0 0 0 0 0 0 0 0 0 0 0 -0 -0 -0 0 0 0 0 0 0 0 0 0 0 0
0 0 0 0 0 0 0 0 0 0 0 0 0 0 0 0 0 0 0 0 0 0 0 0 0 0 0 0 0 0 0 0 0 0 0 0 0 -0 -0 -0 0 0 0 0 0 0 0 0 0
0 0 0 0 0 0 0 0 0 0 0 0 0 0 0 0 0 0 0 0 0 0 0 0 0 0 0 0 0 0 0 0 0 -0 0 0 0 0 0 0 0 0 0 0 0 0 0 0 0
0 0 0 0 0 0 0 0 0 0 0 0 0 0 0 0 0 0 0 0 0 0 0 0 0 0 0 0 0 0 0 -0 -0 -0 -0 0 0 0 0 0 0 0 0 0 0 0 0 0 0
Wind_Speed_500mb
10 6 5 2 5 7 4 3 2 4 2 4 3 6 3 7 5 2 8 8 12 10 8 12 15 10 12 14 17 20 21 22 22 22 23 22 20 17 13 9 9 12 13 17 15 14 11 10 8
7 7 5 3 7 5 2 5 4 3 7 5 10 6 7 5 9 5 7 12 9 8 10 14 15 16 16 16 17 21 24 26 26 26 25 25 24 21 19 15 11 12 17 22 22 16 12 8 8
9 7 2 7 6 5 4 1 2 4 15 10 6 10 5 5 9 6 12 12 13 16 17 16 15 14 17 20 22 23 26 28 29 29 30 30 28 27 26 24 19 14 16 26 27 21 16 10 9
5 3 11 7 5 2 3 2 5 4 4 18 11 7 5 9 6 11 8 6 7 14 15 16 19 20 20 22 24 28 31 34 34 33 32 31 32 32 33 31 27 21 18 24 29 26 26 17 13
5 6 8 8 0 3 2 2 6 2 3 9 11 2 3 6 6 8 8 10 11 12 14 15 17 20 22 24 29 32 34 37 39 40 38 36 36 36 31 32 33 31 26 28 32 33 31 27 19
6 6 8 1 2 1 1 9 1 4 3 6 5 7 2 7 3 10 14 17 19 19 18 19 19 21 25 28 31 33 36 37 46 46 45 43 40 42 40 38 38 38 34 32 35 37 33 32 27
11 7 7 7 2 3 5 5 2 1 5 1 10 5 3 12 22 34 36 30 26 25 24 23 24 27 29 33 36 38 38 37 38 47 49 55 52 49 47 44 39 39 36 33 35 38 38 33 34
8 10 6 5 4 4 3 4 1 3 3 11 2 3 5 26 25 21 22 20 23 25 27 28 28 29 32 35 35 37 39 39 37 37 41 54 61 59 56 52 46 41 37 34 33 34 38 32 35
7 8 4 7 10 4 0 7 3 6 13 7 6 6 14 20 21 21 19 18 20 22 25 31 35 35 33 32 34 37 35 35 34 33 35 39 44 62 67 61 54 48 41 37 35 31 34 38 35
8 7 11 5 5 4 1 1 10 5 10 3 6 4 13 17 18 21 30 30 27 25 23 29 34 33 28 25 28 35 33 29 26 27 29 31 30 40 40 48 12 55 49 50 47 36 30 34 39
4 6 7 1 4 2 1 7 1 2 4 5 7 17 22 17 16 26 24 23 27 28 29 28 28 30 27 23 22 27 31 21 11 21 27 29 32 39 37 55 27 12 30 48 41 44 35 30 27
8 4 4 3 2 2 4 8 6 14 8 6 15 20 23 14 20 24 20 22 24 26 30 29 24 19 16 18 18 19 21 19 28 30 19 24 26 32 37 29 49 51 37 25 26 32 28 26 25
6 2 1 3 13 16 14 13 10 28 26 18 2 19 13 10 17 14 15 17 21 26 29 31 28 17 6 13 13 14 18 24 20 23 31 15 22 31 33 26 14 25 34 36 38 29 5 17 13
3 2 10 3 5 5 4 5 4 4 13 19 12 19 3 12 14 11 11 15 22 24 29 31 23 21 12 7 9 14 11 11 25 25 29 19 18 22 23 22 5 3 34 30 29 28 28 26 25
4 5 4 4 5 1 10 3 10 10 16 15 20 13 5 12 9 11 11 15 20 23 28 30 24 14 9 6 8 11 15 23 24 23 21 20 20 31 30 24 13 13 34 33 29 27 28 32 36
8 8 5 0 12 4 7 11 7 12 6 24 28 4 6 12 9 9 7 10 15 21 26 29 26 15 10 7 10 14 16 18 14 15 18 22 23 30 25 27 23 18 22 27 29 27 27 30 35
12 3 4 11 6 8 3 11 7 11 27 27 7 5 12 14 8 6 6 9 15 19 22 26 25 18 7 9 8 7 16 11 13 16 20 28 25 22 31 30 31 29 29 28 31 32 31 29 32
2 3 4 7 6 9 12 24 20 36 16 9 11 10 16 18 13 6 6 9 13 15 17 21 19 16 10 8 9 8 10 13 18 17 18 21 24 26 28 30 28 27 27 27 30 32 31 34 37
10 6 3 7 3 10 7 13 17 19 15 20 14 13 15 21 20 12 9 10 10 12 11 13 14 10 7 8 10 14 19 22 20 14 15 18 18 22 27 29 27 29 29 30 31 33 33 33 36
7 4 7 9 3 3 8 15 7 7 7 10 12 14 16 16 15 17 17 13 11 11 12 10 13 12 9 10 11 13 16 19 19 19 19 20 22 22 25 27 27 28 30 28 29 33 33 31 26
2 5 4 9 10 3 12 4 2 2 5 9 13 14 15 15 15 15 14 15 15 12 10 11 13 13 12 12 14 16 17 19 22 21 22 23 27 30 28 29 30 31 28 26 28 26 26 27 24
4 5 2 10 6 5 9 7 6 1 2 5 8 13 16 16 15 16 12 11 13 14 14 13 12 12 14 16 17 19 19 20 20 23 23 21 22 24 30 33 33 32 31 28 26 26 25 20 23
7 3 5 2 4 4 7 3 7 3 7 6 7 14 18 18 16 16 16 13 14 15 14 13 14 15 16 18 20 21 22 24 25 24 25 25 24 23 25 28 31 33 34 32 29 27 28 32 24
3 5 4 5 3 5 6 4 7 6 7 6 5 15 16 18 18 15 15 15 16 19 16 12 13 15 16 18 19 22 24 26 28 28 30 30 30 30 28 30 32 32 33 33 34 32 31 32 34
3 7 7 10 8 5 5 1 12 5 2 7 11 13 14 13 12 11 10 12 13 14 16 15 15 16 18 19 20 21 23 27 30 31 31 31 30 29 29 34 36 38 38 38 38 39 37 36 37
6 4 8 8 4 8 6 10 6 5 9 19 19 15 8 8 7 6 7 8 10 12 14 15 18 19 21 21 23 25 29 31 32 34 37 37 36 35 36 34 35 39 43 45 46 47 46 45 44
2 7 5 10 3 2 6 11 8 5 6 12 21 24 16 5 4 3 1 2 6 11 17 21 23 25 26 28 28 29 31 33 36 37 38 42 43 42 39 40 41 42 44 44 47 53 53 52 51
2 10 6 5 1 8 8 9 8 11 16 11 9 17 19 13 9 9 7 5 5 8 15 19 25 29 32 33 35 37 38 39 40 41 43 43 43 45 49 48 47 46 44 46 48 50 52 54 56
3 2 9 6 6 7 5 10 9 8 16 20 14 6 21 18 9 15 8 2 4 7 14 22 27 31 35 39 41 42 44 44 45 47 50 52 54 53 52 52 51 52 52 48 48 52 53 55 57
1 6 7 7 7 4 1 14 2 9 11 36 12 9 28 22 10 17 10 4 4 10 18 25 31 36 40 44 47 49 51 52 52 53 54 55 58 59 59 58 59 56 52 52 54 53 54 57 57
Wind_Direction_500mb
249 237 150 162 63 62 64 43 290 5 68 9 14 45 94 75 51 32 349 10 11 26 17 2 357 322 283 266 249 244 246 248 250 250 258 255 244 238 234 225 214 207 191 185 183 184 182 177 169
203 150 128 100 84 70 350 314 63 352 311 358 102 73 68 76 39 6 26 3 19 19 356 342 343 334 314 283 269 261 257 257 255 254 251 250 252 248 239 225 214 210 207 189 190 205 184 183 174
152 135 72 84 93 126 136 318 284 346 33 47 86 64 68 22 13 11 352 342 345 348 344 343 337 315 304 297 282 271 265 264 261 258 253 250 247 246 244 237 225 220 213 206 198 209 208 197 200
140 118 63 75 86 155 145 286 335 307 25 45 24 71 77 36 16 358 3 5 340 332 335 339 335 327 319 315 304 297 286 270 264 262 259 258 253 247 245 246 234 231 228 216 211 208 209 213 211
96 65 62 82 153 154 204 318 338 44 65 15 18 34 44 55 25 347 331 323 316 314 311 312 316 316 319 319 314 309 301 291 273 263 259 259 258 253 247 244 234 236 238 228 216 216 214 219 220
62 62 60 126 244 207 228 339 11 51 22 352 18 330 226 161 215 331 322 306 298 297 298 301 299 300 306 308 310 312 310 302 287 277 257 253 249 247 250 248 242 241 244 231 219 215 215 218 219
107 77 165 158 227 290 204 345 120 43 313 105 330 303 225 248 303 310 307 301 295 289 286 291 291 291 297 301 303 306 307 306 296 290 279 262 254 248 241 240 242 240 241 233 220 216 216 219 215
101 91 119 209 173 220 207 347 246 337 296 323 310 222 322 317 322 334 335 318 293 291 289 283 277 278 286 295 297 297 300 306 307 298 285 274 262 248 240 238 238 237 236 231 219 215 212 212 207
106 69 170 206 162 169 75 27 36 286 285 296 249 290 311 320 324 321 322 318 303 290 289 285 279 276 276 281 282 288 297 302 310 310 305 297 281 262 239 239 235 228 226 225 216 210 212 206 216
83 113 205 170 165 173 334 291 323 306 321 309 303 293 322 323 330 340 338 337 336 329 316 290 277 272 273 273 276 285 296 303 315 328 330 327 314 295 272 228 238 229 225 220 205 197 199 207 216
91 140 155 106 224 251 249 295 241 287 287 206 294 328 336 337 345 346 356 9 12 4 353 334 299 281 261 279 283 286 292 293 337 357 350 341 339 338 300 260 351 357 221 244 202 189 194 195 204
98 87 140 137 123 316 279 295 271 223 230 299 314 311 328 333 347 351 14 20 18 18 17 12 357 318 261 275 290 290 276 277 298 306 336 343 347 347 334 252 259 355 329 326 306 183 200 205 212
87 123 157 269 289 282 266 267 254 260 271 234 248 325 311 334 355 13 29 28 27 25 22 21 22 9 315 290 308 330 307 301 294 319 340 324 348 350 351 322 226 313 328 312 307 306 311 233 239
103 334 306 344 318 283 267 253 315 206 152 176 310 346 341 345 360 25 34 31 27 26 21 15 12 31 30 353 344 337 330 304 293 305 316 309 327 347 351 353 331 185 300 289 280 277 269 266 260
60 39 33 52 345 299 304 179 227 199 205 245 315 331 347 352 16 29 28 27 23 23 11 2 1 359 6 359 332 312 304 310 301 301 302 289 305 294 328 340 322 280 277 288 284 272 261 257 258
52 54 47 57 354 6 32 279 252 195 218 296 307 294 7 13 49 34 26 19 17 8 10 4 1 349 347 312 272 273 296 323 334 324 305 308 315 273 292 327 323 298 283 285 288 283 274 267 265
13 128 349 327 41 334 73 274 291 236 294 293 293 101 39 41 60 41 37 20 8 9 12 9 10 15 8 347 318 277 308 325 345 333 319 308 304 293 279 311 317 308 302 299 298 294 289 281 275
175 60 301 255 350 12 281 261 283 313 271 229 138 89 57 46 33 26 8 355 358 0 4 10 17 26 29 1 351 333 324 318 308 311 308 299 303 303 303 303 300 300 308 308 302 298 296 296 291
104 85 306 266 280 334 244 290 309 3 116 127 107 86 67 52 41 28 4 358 355 351 347 2 13 14 359 335 321 308 307 302 303 310 303 299 297 296 300 304 308 310 313 306 300 301 302 300 300
86 85 271 280 229 259 316 302 299 23 88 109 100 81 64 57 49 42 33 12 341 334 346 341 352 351 334 319 312 312 313 315 315 308 301 297 296 292 291 293 297 307 312 306 301 298 300 303 311
133 179 245 250 319 286 303 334 355 56 107 90 83 80 60 39 29 25 21 20 16 4 345 337 334 336 333 319 314 313 313 316 318 316 312 306 300 299 293 293 300 303 306 311 308 306 301 298 301
315 183 279 281 337 299 360 280 277 293 281 106 84 63 46 34 31 20 9 0 354 347 346 345 335 321 316 316 318 318 316 313 312 313 313 310 301 294 297 298 295 294 297 305 306 306 306 293 282
254 12 232 187 95 24 19 53 270 2 222 186 60 55 49 39 36 34 31 18 1 348 340 332 330 328 324 322 319 317 316 314 312 309 307 307 305 299 294 292 294 294 293 292 296 297 294 293 284
285 165 70 63 82 47 347 87 279 198 222 145 70 58 51 56 55 54 51 48 39 30 24 14 358 349 343 339 334 327 323 320 317 313 308 304 301 298 297 295 290 285 284 286 287 292 296 296 296
11 44 340 356 8 229 341 8 258 307 47 134 102 73 64 65 70 73 66 56 50 43 43 40 30 20 16 6 357 352 346 340 336 330 325 319 314 308 298 291 288 286 285 283 281 282 284 287 291
37 104 142 244 277 289 318 237 253 224 103 99 89 82 78 58 45 42 46 42 39 37 33 26 18 13 9 6 4 356 350 346 341 336 331 328 324 318 311 301 294 290 285 282 280 279 280 283 285
153 57 160 106 68 355 257 283 287 160 109 101 77 67 51 26 299 267 248 71 60 49 40 32 24 19 13 11 6 1 355 349 345 340 335 329 324 320 313 308 305 298 289 285 282 279 278 278 278
109 151 71 21 349 274 275 272 246 195 193 190 129 77 42 13 244 203 172 136 79 50 38 23 12 5 360 355 353 351 346 342 338 333 328 324 321 318 315 312 306 301 296 293 284 280 279 277 277
86 90 52 112 166 205 283 256 215 228 203 185 176 65 11 3 281 210 216 177 77 33 10 1 356 352 347 345 344 342 339 334 330 328 325 323 319 314 310 308 305 303 300 294 287 283 280 276 277
87 170 149 136 243 240 247 271 347 274 232 185 193 301 344 347 307 211 194 161 64 15 356 349 347 345 342 339 337 334 331 328 326 323 320 318 315 313 312 307 303 300 298 295 291 284 279 278 275
Wind_Speed_850mb
10 6 5 2 5 7 4 3 2 4 2 4 3 6 3 7 5 2 8 8 12 10 8 12 15 10 12 14 17 20 21 22 22 22 23 22 20 17 13 9 9 12 13 17 15 14 11 10 8
7 7 5 3 7 5 2 5 4 3 7 5 10 6 7 5 9 5 7 12 9 8 10 14 15 16 16 16 17 21 24 26 26 26 25 25 24 21 19 15 11 12 17 22 22 16 12 8 8
9 7 2 7 6 5 4 1 2 4 15 10 6 10 5 5 9 6 12 12 13 16 17 16 15 14 17 20 22 23 26 28 29 29 30 30 28 27 26 24 19 14 16 26 27 21 16 10 9
5 3 11 7 5 2 3 2 5 4 4 18 11 7 5 9 6 11 8 6 7 14 15 16 19 20 20 22 24 28 31 34 34 33 32 31 32 32 33 31 27 21 18 24 29 26 26 17 13
5 6 8 8 0 3 2 2 6 2 3 9 11 2 3 6 6 8 8 10 11 12 14 15 17 20 22 24 29 32 34 37 39 40 38 36 36 36 31 32 33 31 26 28 32 33 31 27 19
6 6 8 1 2 1 1 9 1 4 3 6 5 7 2 7 3 10 14 17 19 19 18 19 19 21 25 28 31 33 36 37 46 46 45 43 40 42 40 38 38 38 34 32 35 37 33 32 27
11 7 7 7 2 3 5 5 2 1 5 1 10 5 3 12 22 34 36 30 26 25 24 23 24 27 29 33 36 38 38 37 38 47 49 55 52 49 47 44 39 39 36 33 35 38 38 33 34
8 10 6 5 4 4 3 4 1 3 3 11 2 3 5 26 25 21 22 20 23 25 27 28 28 29 32 35 35 37 39 39 37 37 41 54 61 59 56 52 46 41 37 34 33 34 38 32 35
7 8 4 7 10 4 0 7 3 6 13 7 6 6 14 20 21 21 19 18 20 22 25 31 35 35 33 32 34 37 35 35 34 33 35 39 44 62 67 61 54 48 41 37 35 31 34 38 35
8 7 11 5 5 4 1 1 10 5 10 3 6 4 13 17 18 21 30 30 27 25 23 29 34 33 28 25 28 35 33 29 26 27 29 31 30 40 40 48 12 55 49 50 47 36 30 34 39
4 6 7 1 4 2 1 7 1 2 4 5 7 17 22 17 16 26 24 23 27 28 29 28 28 30 27 23 22 27 31 21 11 21 27 29 32 39 37 55 27 12 30 48 41 44 35 30 27
8 4 4 3 2 2 4 8 6 14 8 6 15 20 23 14 20 24 20 22 24 26 30 29 24 19 16 18 18 19 21 19 28 30 19 24 26 32 37 29 49 51 37 25 26 32 28 26 25
6 2 1 3 13 16 14 13 10 28 26 18 2 19 13 10 17 14 15 17 21 26 29 31 28 17 6 13 13 14 18 24 20 23 31 15 22 31 33 26 14 25 34 36 38 29 5 17 13
3 2 10 3 5 5 4 5 4 4 13 19 12 19 3 12 14 11 11 15 22 24 29 31 23 21 12 7 9 14 11 11 25 25 29 19 18 22 23 22 5 3 34 30 29 28 28 26 25
4 5 4 4 5 1 10 3 10 10 16 15 20 13 5 12 9 11 11 15 20 23 28 30 24 14 9 6 8 11 15 23 24 23 21 20 20 31 30 24 13 13 34 33 29 27 28 32 36
8 8 5 0 12 4 7 11 7 12 6 24 28 4 6 12 9 9 7 10 15 21 26 29 26 15 10 7 10 14 16 18 14 15 18 22 23 30 25 27 23 18 22 27 29 27 27 30 35
12 3 4 11 6 8 3 11 7 11 27 27 7 5 12 14 8 6 6 9 15 19 22 26 25 18 7 9 8 7 16 11 13 16 20 28 25 22 31 30 31 29 29 28 31 32 31 29 32
2 3 4 7 6 9 12 24 20 36 16 9 11 10 16 18 13 6 6 9 13 15 17 21 19 16 10 8 9 8 10 13 18 17 18 21 24 26 28 30 28 27 27 27 30 32 31 34 37
10 6 3 7 3 10 7 13 17 19 15 20 14 13 15 21 20 12 9 10 10 12 11 13 14 10 7 8 10 14 19 22 20 14 15 18 18 22 27 29 27 29 29 30 31 33 33 33 36
7 4 7 9 3 3 8 15 7 7 7 10 12 14 16 16 15 17 17 13 11 11 12 10 13 12 9 10 11 13 16 19 19 19 19 20 22 22 25 27 27 28 30 28 29 33 33 31 26
2 5 4 9 10 3 12 4 2 2 5 9 13 14 15 15 15 15 14 15 15 12 10 11 13 13 12 12 14 16 17 19 22 21 22 23 27 30 28 29 30 31 28 26 28 26 26 27 24
4 5 2 10 6 5 9 7 6 1 2 5 8 13 16 16 15 16 12 11 13 14 14 13 12 12 14 16 17 19 19 20 20 23 23 21 22 24 30 33 33 32 31 28 26 26 25 20 23
7 3 5 2 4 4 7 3 7 3 7 6 7 14 18 18 16 16 16 13 14 15 14 13 14 15 16 18 20 21 22 24 25 24 25 25 24 23 25 28 31 33 34 32 29 27 28 32 24
3 5 4 5 3 5 6 4 7 6 7 6 5 15 16 18 18 15 15 15 16 19 16 12 13 15 16 18 19 22 24 26 28 28 30 30 30 30 28 30 32 32 33 33 34 32 31 32 34
3 7 7 10 8 5 5 1 12 5 2 7 11 13 14 13 12 11 10 12 13 14 16 15 15 16 18 19 20 21 23 27 30 31 31 31 30 29 29 34 36 38 38 38 38 39 37 36 37
6 4 8 8 4 8 6 10 6 5 9 19 19 15 8 8 7 6 7 8 10 12 14 15 18 19 21 21 23 25 29 31 32 34 37 37 36 35 36 34 35 39 43 45 46 47 46 45 44
2 7 5 10 3 2 6 11 8 5 6 12 21 24 16 5 4 3 1 2 6 11 17 21 23 25 26 28 28 29 31 33 36 37 38 42 43 42 39 40 41 42 44 44 47 53 53 52 51
2 10 6 5 1 8 8 9 8 11 16 11 9 17 19 13 9 9 7 5 5 8 15 19 25 29 32 33 35 37 38 39 40 41 43 43 43 45 49 48 47 46 44 46 48 50 52 54 56
3 2 9 6 6 7 5 10 9 8 16 20 14 6 21 18 9 15 8 2 4 7 14 22 27 31 35 39 41 42 44 44 45 47 50 52 54 53 52 52 51 52 52 48 48 52 53 55 57
1 6 7 7 7 4 1 14 2 9 11 36 12 9 28 22 10 17 10 4 4 10 18 25 31 36 40 44 47 49 51 52 52 53 54 55 58 59 59 58 59 56 52 52 54 53 54 57 57
Wind_Direction_850mb
249 237 150 162 63 62 64 43 290 5 68 9 14 45 94 75 51 32 349 10 11 26 17 2 357 322 283 266 249 244 246 248 250 250 258 255 244 238 234 225 214 207 191 185 183 184 182 177 169
203 150 128 100 84 70 350 314 63 352 311 358 102 73 68 76 39 6 26 3 19 19 356 342 343 334 314 283 269 261 257 257 255 254 251 250 252 248 239 225 214 210 207 189 190 205 184 183 174
152 135 72 84 93 126 136 318 284 346 33 47 86 64 68 22 13 11 352 342 345 348 344 343 337 315 304 297 282 271 265 264 261 258 253 250 247 246 244 237 225 220 213 206 198 209 208 197 200
140 118 63 75 86 155 145 286 335 307 25 45 24 71 77 36 16 358 3 5 340 332 335 339 335 327 319 315 304 297 286 270 264 262 259 258 253 247 245 246 234 231 228 216 211 208 209 213 211
96 65 62 82 153 154 204 318 338 44 65 15 18 34 44 55 25 347 331 323 316 314 311 312 316 316 319 319 314 309 301 291 273 263 259 259 258 253 247 244 234 236 238 228 216 216 214 219 220
62 62 60 126 244 207 228 339 11 51 22 352 18 330 226 161 215 331 322 306 298 297 298 301 299 300 306 308 310 312 310 302 287 277 257 253 249 247 250 248 242 241 244 231 219 215 215 218 219
107 77 165 158 227 290 204 345 120 43 313 105 330 303 225 248 303 310 307 301 295 289 286 291 291 291 297 301 303 306 307 306 296 290 279 262 254 248 241 240 242 240 241 233 220 216 216 219 215
101 91 119 209 173 220 207 347 246 337 296 323 310 222 322 317 322 334 335 318 293 291 289 283 277 278 286 295 297 297 300 306 307 298 285 274 262 248 240 238 238 237 236 231 219 215 212 212 207
106 69 170 206 162 169 75 27 36 286 285 296 249 290 311 320 324 321 322 318 303 290 289 285 279 276 276 281 282 288 297 302 310 310 305 297 281 262 239 239 235 228 226 225 216 210 212 206 216
83 113 205 170 165 173 334 291 323 306 321 309 303 293 322 323 330 340 338 337 336 329 316 290 277 272 273 273 276 285 296 303 315 328 330 327 314 295 272 228 238 229 225 220 205 197 199 207 216
91 140 155 106 224 251 249 295 241 287 287 206 294 328 336 337 345 346 356 9 12 4 353 334 299 281 261 279 283 286 292 293 337 357 350 341 339 338 300 260 351 357 221 244 202 189 194 195 204
98 87 140 137 123 316 279 295 271 223 230 299 314 311 328 333 347 351 14 20 18 18 17 12 357 318 261 275 290 290 276 277 298 306 336 343 347 347 334 252 259 355 329 326 306 183 200 205 212
87 123 157 269 289 282 266 267 254 260 271 234 248 325 311 334 355 13 29 28 27 25 22 21 22 9 315 290 308 330 307 301 294 319 340 324 348 350 351 322 226 313 328 312 307 306 311 233 239
103 334 306 344 318 283 267 253 315 206 152 176 310 346 341 345 360 25 34 31 27 26 21 15 12 31 30 353 344 337 330 304 293 305 316 309 327 347 351 353 331 185 300 289 280 277 269 266 260
60 39 33 52 345 299 304 179 227 199 205 245 315 331 347 352 16 29 28 27 23 23 11 2 1 359 6 359 332 312 304 310 301 301 302 289 305 294 328 340 322 280 277 288 284 272 261 257 258
52 54 47 57 354 6 32 279 252 195 218 296 307 294 7 13 49 34 26 19 17 8 10 4 1 349 347 312 272 273 296 323 334 324 305 308 315 273 292 327 323 298 283 285 288 283 274 267 265
13 128 349 327 41 334 73 274 291 236 294 293 293 101 39 41 60 41 37 20 8 9 12 9 10 15 8 347 318 277 308 325 345 333 319 308 304 293 279 311 317 308 302 299 298 294 289 281 275
175 60 301 255 350 12 281 261 283 313 271 229 138 89 57 46 33 26 8 355 358 0 4 10 17 26 29 1 351 333 324 318 308 311 308 299 303 303 303 303 300 300 308 308 302 298 296 296 291
104 85 306 266 280 334 244 290 309 3 116 127 107 86 67 52 41 28 4 358 355 351 347 2 13 14 359 335 321 308 307 302 303 310 303 299 297 296 300 304 308 310 313 306 300 301 302 300 300
86 85 271 280 229 259 316 302 299 23 88 109 100 81 64 57 49 42 33 12 341 334 346 341 352 351 334 319 312 312 313 315 315 308 301 297 296 292 291 293 297 307 312 306 301 298 300 303 311
133 179 245 250 319 286 303 334 355 56 107 90 83 80 60 39 29 25 21 20 16 4 345 337 334 336 333 319 314 313 313 316 318 316 312 306 300 299 293 293 300 303 306 311 308 306 301 298 301
315 183 279 281 337 299 360 280 277 293 281 106 84 63 46 34 31 20 9 0 354 347 346 345 335 321 316 316 318 318 316 313 312 313 313 310 301 294 297 298 295 294 297 305 306 306 306 293 282
254 12 232 187 95 24 19 53 270 2 222 186 60 55 49 39 36 34 31 18 1 348 340 332 330 328 324 322 319 317 316 314 312 309 307 307 305 299 294 292 294 294 293 292 296 297 294 293 284
285 165 70 63 82 47 347 87 279 198 222 145 70 58 51 56 55 54 51 48 39 30 24 14 358 349 343 339 334 327 323 320 317 313 308 304 301 298 297 295 290 285 284 286 287 292 296 296 296
11 44 340 356 8 229 341 8 258 307 47 134 102 73 64 65 70 73 66 56 50 43 43 40 30 20 16 6 357 352 346 340 336 330 325 319 314 308 298 291 288 286 285 283 281 282 284 287 291
37 104 142 244 277 289 318 237 253 224 103 99 89 82 78 58 45 42 46 42 39 37 33 26 18 13 9 6 4 356 350 346 341 336 331 328 324 318 311 301 294 290 285 282 280 279 280 283 285
153 57 160 106 68 355 257 283 287 160 109 101 77 67 51 26 299 267 248 71 60 49 40 32 24 19 13 11 6 1 355 349 345 340 335 329 324 320 313 308 305 298 289 285 282 279 278 278 278
109 151 71 21 349 274 275 272 246 195 193 190 129 77 42 13 244 203 172 136 79 50 38 23 12 5 360 355 353 351 346 342 338 333 328 324 321 318 315 312 306 301 296 293 284 280 279 277 277
86 90 52 112 166 205 283 256 215 228 203 185 176 65 11 3 281 210 216 177 77 33 10 1 356 352 347 345 344 342 339 334 330 328 325 323 319 314 310 308 305 303 300 294 287 283 280 276 277
87 170 149 136 243 240 247 271 347 274 232 185 193 301 344 347 307 211 194 161 64 15 356 349 347 345 342 339 337 334 331 328 326 323 320 318 315 313 312 307 303 300 298 295 291 284 279 278 275